GW1795 Weather Reports


time (UTC)temp
C
wind
direction
speed
KPH
gust
KPH
rain 1hr
cm
rain 24hr
cm
rain mn
cm
humidity
%
barometer
mb
20260506234736 11 93 3.2 4.8 0.00 0.00 0.00 50 1009.9
20260506234232 11 117 3.2 4.8 0.00 0.00 0.00 51 1009.8
20260506233730 12 59 0.0 6.4 0.00 0.00 0.00 50 1009.9
20260506233226 12 45 3.2 6.4 0.00 0.00 0.00 49 1009.9
20260506232723 12 115 0.0 9.7 0.00 0.00 0.00 50 1010.3
20260506232218 12 115 3.2 4.8 0.00 0.00 0.00 50 1010.2
20260506231715 12 144 3.2 8.0 0.00 0.00 0.00 48 1010.3
20260506231214 12 338 3.2 4.8 0.00 0.00 0.00 48 1010.5
20260506230710 12 182 3.2 4.8 0.00 0.00 0.00 49 1010.3
20260506230207 12 186 0.0 3.2 0.00 0.00 0.00 49 1010.4
20260506225703 12 274 1.6 8.0 0.00 0.00 0.00 47 1010.3
20260506225201 12 85 3.2 4.8 0.00 0.00 0.00 46 1010.3
20260506224657 12 231 4.8 8.0 0.00 0.00 0.00 47 1010.5
20260506224154 12 266 4.8 8.0 0.00 0.00 0.00 46 1010.6
20260506223650 12 1 1.6 8.0 0.00 0.00 0.00 48 1010.4
20260506223146 12 104 3.2 4.8 0.00 0.00 0.00 48 1010.4
20260506222643 12 78 0.0 6.4 0.00 0.00 0.00 48 1010.5
20260506222139 12 235 4.8 8.0 0.00 0.00 0.00 49 1010.5
20260506221637 12 30 3.2 6.4 0.00 0.00 0.00 49 1010.6
20260506221135 12 345 8.0 9.7 0.00 0.00 0.00 48 1010.2
20260506220631 12 0 3.2 8.0 0.00 0.00 0.00 48 1010.1
20260506220126 12 25 1.6 6.4 0.00 0.00 0.00 48 1010.2
20260506215623 12 66 3.2 6.4 0.00 0.00 0.00 46 1009.9
20260506215119 12 36 1.6 6.4 0.00 0.00 0.00 47 1010.0
20260506214616 12 27 6.4 8.0 0.00 0.00 0.00 47 1009.8
20260506214113 12 298 3.2 12.9 0.00 0.00 0.00 47 1009.8
20260506213612 12 39 0.0 9.7 0.00 0.00 0.00 48 1009.7
20260506213108 12 139 4.8 9.7 0.00 0.00 0.00 47 1009.7
20260506212605 12 1 6.4 14.5 0.00 0.00 0.00 46 1009.6
20260506212100 13 200 1.6 4.8 0.00 0.00 0.00 47 1009.6
20260506211556 12 77 3.2 9.7 0.00 0.00 0.00 46 1009.5
20260506211054 12 70 3.2 14.5 0.00 0.00 0.00 48 1009.6
20260506210550 12 61 8.0 8.0 0.00 0.00 0.00 48 1009.6
20260506210046 13 344 11.3 11.3 0.00 0.00 0.00 46 1009.9
20260506205543 12 186 3.2 9.7 0.00 0.00 0.00 46 1009.6
20260506205038 12 32 0.0 8.0 0.00 0.00 0.00 48 1009.6
20260506204537 12 148 3.2 6.4 0.00 0.00 0.00 48 1009.5
20260506204033 12 110 1.6 8.0 0.00 0.00 0.00 46 1009.7
20260506203532 12 0 3.2 9.7 0.00 0.00 0.00 45 1009.4
20260506203028 13 335 6.4 9.7 0.00 0.00 0.00 44 1009.5
20260506202525 13 339 9.7 11.3 0.00 0.00 0.00 46 1009.5
20260506202022 13 251 6.4 9.7 0.00 0.00 0.00 47 1009.5
20260506201520 13 47 6.4 8.0 0.00 0.00 0.00 48 1009.4
20260506201016 13 344 4.8 16.1 0.00 0.00 0.00 45 1009.4
20260506200512 13 345 8.0 8.0 0.00 0.00 0.00 47 1009.5
20260506200009 13 32 4.8 17.7 0.00 0.00 0.00 47 1009.4
20260506195506 13 82 3.2 16.1 0.00 0.00 0.00 51 1009.3
20260506195002 13 85 1.6 6.4 0.00 0.00 0.00 51 1009.4
20260506194500 12 1 4.8 9.7 0.00 0.00 0.00 49 1009.4
20260506193956 13 61 3.2 11.3 0.00 0.00 0.00 51 1009.4
20260506193454 13 327 4.8 12.9 0.00 0.00 0.00 49 1009.6
20260506192950 13 323 6.4 8.0 0.00 0.00 0.00 50 1009.5
20260506192447 13 84 3.2 6.4 0.00 0.00 0.00 49 1009.4
20260506191943 13 104 4.8 9.7 0.00 0.00 0.00 48 1009.3
20260506191441 13 347 0.0 6.4 0.00 0.00 0.00 48 1009.3
20260506190937 14 37 6.4 11.3 0.00 0.00 0.00 47 1009.2
20260506190434 14 48 8.0 9.7 0.00 0.00 0.00 50 1009.0
20260506185931 14 11 3.2 9.7 0.00 0.00 0.00 48 1009.2
20260506185428 13 154 0.0 8.0 0.00 0.00 0.00 49 1009.1
20260506184925 14 15 3.2 16.1 0.00 0.00 0.00 48 1009.1
20260506184421 14 40 3.2 19.3 0.00 0.00 0.00 47 1009.3
20260506183919 15 91 4.8 14.5 0.00 0.00 0.00 46 1009.2
20260506183414 13 343 4.8 9.7 0.00 0.00 0.00 49 1009.2
20260506182912 13 86 3.2 9.7 0.00 0.00 0.00 51 1009.3
20260506182409 14 69 4.8 14.5 0.00 0.00 0.00 50 1009.4
20260506181906 14 105 1.6 8.0 0.00 0.00 0.00 47 1009.3
20260506181404 14 71 6.4 12.9 0.00 0.00 0.00 51 1009.4
20260506180901 14 237 8.0 11.3 0.00 0.00 0.00 47 1009.2
20260506180356 14 343 6.4 12.9 0.00 0.00 0.00 46 1009.3
20260506175854 14 29 1.6 9.7 0.00 0.00 0.00 47 1009.3
20260506175350 14 340 6.4 19.3 0.00 0.00 0.00 48 1009.3
20260506174847 14 235 4.8 14.5 0.00 0.00 0.00 47 1009.3
20260506174345 14 75 3.2 8.0 0.00 0.00 0.00 49 1009.3
20260506173842 14 213 6.4 14.5 0.00 0.00 0.00 49 1009.4
20260506173339 13 77 3.2 9.7 0.00 0.00 0.00 52 1009.4
20260506172836 14 344 12.9 14.5 0.00 0.00 0.00 47 1009.4
20260506172332 14 321 6.4 6.4 0.00 0.00 0.00 51 1009.5
20260506171830 14 350 3.2 9.7 0.00 0.00 0.00 50 1009.3
20260506171327 13 50 1.6 11.3 0.00 0.00 0.00 53 1009.0
20260506170825 13 345 9.7 14.5 0.00 0.00 0.00 49 1009.0
20260506170320 13 91 6.4 9.7 0.00 0.00 0.00 53 1009.3
20260506165820 13 311 3.2 11.3 0.00 0.00 0.00 51 1009.3
20260506165317 13 344 12.9 16.1 0.00 0.00 0.00 51 1009.5
20260506164813 13 251 1.6 9.7 0.00 0.00 0.00 57 1009.6
20260506164310 13 102 3.2 11.3 0.00 0.00 0.00 54 1009.4
20260506163807 13 30 3.2 9.7 0.00 0.00 0.00 54 1009.2
20260506163301 13 53 3.2 9.7 0.00 0.00 0.00 53 1009.3
20260506162757 13 167 3.2 6.4 0.00 0.00 0.00 60 1009.6
20260506162256 12 16 4.8 14.5 0.00 0.00 0.00 58 1009.5
20260506161753 12 48 4.8 14.5 0.00 0.00 0.00 59 1009.4
20260506161250 12 82 4.8 6.4 0.00 0.00 0.00 58 1009.5
20260506160748 12 141 3.2 9.7 0.00 0.00 0.00 56 1009.3
20260506160244 12 58 6.4 8.0 0.00 0.00 0.00 61 1009.2
20260506155743 12 347 4.8 9.7 0.00 0.00 0.00 60 1009.0
20260506155239 12 355 4.8 6.4 0.00 0.00 0.00 60 1009.1
20260506153346 11 233 0.0 9.7 0.00 0.00 0.00 62 1008.8
20260506152843 11 35 6.4 11.3 0.00 0.00 0.00 61 1008.9
20260506152340 11 236 6.4 8.0 0.00 0.00 0.00 63 1008.9
20260506151839 11 351 3.2 9.7 0.00 0.00 0.00 62 1008.8
20260506151335 11 315 14.5 17.7 0.00 0.00 0.00 61 1008.7
20260506150832 11 231 4.8 9.7 0.00 0.00 0.00 62 1008.4
20260506150329 11 309 3.2 9.7 0.00 0.00 0.00 61 1008.4
20260506145826 11 4 8.0 11.3 0.00 0.00 0.00 63 1008.6
20260506145322 11 308 3.2 4.8 0.00 0.00 0.00 62 1008.6
20260506144820 10 237 0.0 17.7 0.00 0.00 0.00 65 1008.4
20260506144316 10 74 3.2 6.4 0.00 0.00 0.00 64 1008.7
20260506143815 10 334 12.9 14.5 0.00 0.00 0.00 64 1008.8
20260506143311 10 356 3.2 8.0 0.00 0.00 0.00 64 1008.3
20260506142810 10 331 8.0 11.3 0.00 0.00 0.00 64 1008.6
20260506142307 10 329 3.2 6.4 0.00 0.00 0.00 68 1008.2
20260506141806 10 333 3.2 9.7 0.00 0.00 0.00 68 1008.0
20260506141303 10 306 4.8 17.7 0.00 0.00 0.00 67 1008.1
20260506140801 10 322 6.4 16.1 0.00 0.00 0.00 70 1008.1
20260506140257 9 343 3.2 14.5 0.00 0.00 0.00 72 1007.9
20260506135755 9 37 4.8 12.9 0.00 0.00 0.00 72 1007.6
20260506135250 9 13 3.2 11.3 0.00 0.00 0.00 74 1007.5
20260506134748 9 354 3.2 9.7 0.00 0.00 0.00 77 1007.7
20260506134244 9 54 6.4 9.7 0.00 0.00 0.00 76 1007.7
20260506133741 8 211 3.2 6.4 0.00 0.00 0.00 80 1007.7
20260506133238 8 344 3.2 9.7 0.00 0.00 0.00 80 1007.5
20260506132735 8 253 1.6 9.7 0.00 0.00 0.00 82 1007.7
20260506132232 8 320 11.3 12.9 0.00 0.00 0.00 82 1007.7
20260506131730 8 89 0.0 4.8 0.00 0.00 0.00 85 1007.6
20260506131225 7 44 9.7 9.7 0.00 0.00 0.00 85 1007.8
20260506130723 7 44 3.2 8.0 0.00 0.00 0.00 85 1007.5
20260506130219 7 319 4.8 12.9 0.00 0.00 0.00 84 1007.6
20260506125718 7 348 8.0 11.3 0.00 0.00 0.00 85 1007.7
20260506125215 7 1 3.2 4.8 0.00 0.00 0.00 86 1007.6
20260506124713 7 344 9.7 9.7 0.00 0.00 0.00 86 1007.5
20260506124211 7 317 3.2 9.7 0.00 0.00 0.00 86 1007.3
20260506123708 7 6 3.2 8.0 0.00 0.00 0.00 87 1007.1
20260506123207 7 344 1.6 4.8 0.00 0.00 0.00 87 1007.0
20260506122703 7 345 4.8 8.0 0.00 0.00 0.00 87 1006.9
20260506122201 7 337 3.2 3.2 0.00 0.00 0.00 87 1006.9
20260506121658 7 77 1.6 9.7 0.00 0.00 0.00 87 1006.7
20260506121154 7 36 3.2 9.7 0.00 0.00 0.00 88 1006.7
20260506120652 7 43 3.2 6.4 0.00 0.00 0.00 90 1006.7
20260506120149 7 353 0.0 4.8 0.00 0.00 0.00 92 1006.8
20260506115648 7 134 0.0 3.2 0.00 0.00 0.00 93 1006.6
20260506115146 7 120 3.2 3.2 0.00 0.00 0.00 94 1006.8
20260506114643 7 358 0.0 3.2 0.00 0.00 0.00 95 1006.8
20260506114141 7 299 0.0 3.2 0.00 0.00 0.00 95 1006.6
20260506113639 7 57 1.6 8.0 0.00 0.00 0.00 95 1006.1
20260506113136 7 0 3.2 9.7 0.00 0.00 0.00 96 1006.3
20260506112632 7 44 1.6 8.0 0.00 0.00 0.00 96 1006.0
20260506112129 7 37 3.2 9.7 0.00 0.00 0.00 96 1005.8
20260506111627 7 316 3.2 9.7 0.00 0.00 0.00 96 1005.7
20260506111125 7 17 3.2 14.5 0.00 0.00 0.00 96 1005.5
20260506110622 7 75 4.8 6.4 0.00 0.00 0.00 96 1005.5
20260506110119 7 31 3.2 9.7 0.00 0.00 0.00 96 1005.4
20260506105616 7 69 1.6 6.4 0.00 2.72 2.72 96 1005.9
20260506105113 7 356 0.0 4.8 0.00 2.72 2.72 96 1006.0
20260506104611 7 47 3.2 6.4 0.00 2.72 2.72 96 1005.5
20260506104108 7 64 3.2 3.2 0.00 2.72 2.72 96 1005.6
20260506103605 7 123 3.2 6.4 0.00 2.72 2.72 97 1005.5
20260506103102 7 47 3.2 6.4 0.00 2.72 2.72 97 1005.4
20260506102600 7 311 4.8 4.8 0.00 2.72 2.72 97 1005.6
20260506102057 7 32 3.2 9.7 0.00 2.72 2.72 97 1005.7
20260506101554 7 330 6.4 6.4 0.00 2.72 2.72 97 1005.6
20260506101051 7 269 0.0 6.4 0.00 2.72 2.72 97 1005.1
20260506100549 7 96 1.6 4.8 0.00 2.72 2.72 97 1005.0
20260506100047 7 337 0.0 6.4 0.00 2.72 2.72 97 1004.5
20260506095545 7 348 1.6 9.7 0.00 2.72 2.72 97 1004.9
20260506095041 7 89 0.0 3.2 0.00 2.72 2.72 97 1004.8
20260506094539 7 185 1.6 3.2 0.00 2.72 2.72 97 1004.5
20260506094037 7 214 3.2 4.8 0.00 2.72 2.72 97 1004.5
20260506093535 7 89 0.0 6.4 0.00 2.72 2.72 97 1003.9
20260506093032 7 6 0.0 6.4 0.00 2.72 2.72 97 1003.9
20260506092530 7 118 3.2 4.8 0.00 2.72 2.72 97 1004.3
20260506092026 7 348 0.0 6.4 0.00 2.72 2.72 97 1004.8
20260506091525 7 116 3.2 9.7 0.00 2.72 2.72 97 1004.5
20260506091022 7 299 0.0 9.7 0.05 2.72 2.72 97 1004.4
20260506090520 7 30 9.7 14.5 0.13 2.72 2.72 97 1004.2
20260506090016 7 21 8.0 11.3 0.30 2.72 2.72 96 1004.3
20260506085513 7 2 3.2 9.7 0.30 2.69 2.69 96 1004.3
20260506085009 7 312 3.2 11.3 0.23 2.67 2.67 96 1004.4
20260506084506 7 131 3.2 9.7 0.05 2.62 2.62 96 1004.8
20260506084002 7 326 3.2 6.4 0.18 2.62 2.62 96 1004.8
20260506083459 7 196 0.0 6.4 0.18 2.62 2.62 96 1004.8
20260506082956 7 254 3.2 9.7 0.18 2.59 2.59 97 1004.8
20260506082454 7 52 8.0 9.7 0.18 2.59 2.59 97 1004.6
20260506081949 7 64 0.0 6.4 0.18 2.57 2.57 96 1004.6
20260506081448 7 334 3.2 9.7 0.13 2.54 2.54 96 1004.5
20260506080945 7 326 4.8 14.5 0.13 2.54 2.54 96 1004.6
20260506080442 7 32 0.0 9.7 0.05 2.54 2.54 96 1004.6
20260506073426 7 322 8.0 11.3 0.13 2.51 2.51 97 1004.0
20260506072923 7 55 1.6 8.0 0.13 2.51 2.51 97 1003.8
20260506072420 7 16 3.2 11.3 0.23 2.49 2.49 97 1004.1
20260506071918 7 81 3.2 8.0 0.18 2.49 2.49 97 1004.3
20260506071416 7 319 4.8 14.5 0.18 2.46 2.46 97 1004.1
20260506070912 7 32 14.5 14.5 0.18 2.44 2.44 97 1004.1
20260506070409 7 345 4.8 11.3 0.30 2.44 2.44 97 1004.1
20260506062346 8 330 9.7 9.7 0.18 2.24 2.24 96 1004.1
20260506061842 8 311 0.0 9.7 0.23 2.21 2.21 96 1004.2
20260506061339 8 310 3.2 12.9 0.23 2.21 2.21 96 1004.1
20260506060837 8 333 4.8 14.5 0.30 2.18 2.18 96 1004.3
20260506060335 8 23 4.8 17.7 0.23 2.16 2.16 96 1004.0
20260506051307 8 109 1.6 6.4 0.05 2.06 2.06 96 1004.5
20260506050805 8 91 1.6 9.7 0.13 2.06 2.06 96 1004.4
20260506050302 8 315 4.8 11.3 0.13 2.06 2.06 96 1004.9
20260506044752 8 333 0.0 6.4 0.00 2.03 2.03 96 1004.8
20260506044250 8 118 0.0 3.2 0.00 2.03 2.03 96 1004.4
20260506043747 8 25 3.2 6.4 0.00 2.03 2.03 96 1004.4
20260506043244 8 80 3.2 6.4 0.00 2.03 2.03 96 1004.4
20260506042743 8 356 1.6 6.4 0.00 2.03 2.03 96 1004.5
20260506042241 8 30 0.0 8.0 0.00 2.03 2.03 96 1004.4
20260506041739 8 43 6.4 14.5 0.00 2.03 2.03 96 1004.4
20260506041236 8 38 3.2 8.0 0.00 2.03 2.03 96 1004.6
20260506040733 9 26 3.2 6.4 0.00 2.03 2.03 96 1004.9
20260506040230 9 53 1.6 6.4 0.00 2.03 2.03 96 1004.6
20260506035727 9 138 4.8 6.4 0.00 2.03 2.03 96 1004.4
20260506035224 9 54 3.2 4.8 0.05 2.03 2.03 96 1004.6
20260506034720 9 140 1.6 6.4 0.13 2.03 2.03 96 1005.0
20260506034218 9 319 3.2 4.8 0.18 2.03 2.03 96 1005.0
20260506033715 9 46 4.8 9.7 0.23 2.03 2.03 96 1005.0
20260506033212 9 60 1.6 8.0 0.13 1.98 1.98 96 1005.0
20260506032709 9 356 1.6 4.8 0.13 1.98 1.98 96 1005.3
20260506032206 9 107 4.8 6.4 0.18 1.98 1.98 96 1005.4
20260506031702 10 31 1.6 3.2 0.30 1.96 1.96 96 1005.4
20260506031200 10 35 8.0 11.3 0.43 1.93 1.93 96 1005.3
20260506030658 10 55 4.8 6.4 0.43 1.91 1.91 96 1005.6
20260506030155 10 52 3.2 9.7 0.48 1.88 1.88 95 1005.7
20260506025652 10 26 1.6 14.5 0.30 1.83 1.83 95 1005.6
20260506025148 10 42 3.2 9.7 0.13 1.78 1.78 95 1005.6
20260506024646 10 316 8.0 14.5 0.18 1.78 1.78 95 1005.6
20260506024142 10 62 0.0 8.0 0.23 1.75 1.75 95 1005.7
20260506023638 10 160 1.6 8.0 0.30 1.75 1.75 95 1005.4
20260506023135 10 351 4.8 16.1 0.30 1.73 1.73 95 1005.3
20260506022633 11 26 3.2 9.7 0.23 1.70 1.70 94 1005.3
20260506022130 11 28 3.2 6.4 0.23 1.68 1.68 94 1005.2
20260506021628 11 87 0.0 9.7 0.30 1.65 1.65 94 1005.4
20260506021125 12 346 4.8 9.7 0.36 1.63 1.63 93 1005.1
20260506020622 12 113 0.0 14.5 0.36 1.60 1.60 92 1005.1
20260506020119 15 340 6.4 8.0 0.30 1.55 1.55 94 1005.1
20260506015617 15 303 0.0 9.7 0.30 1.52 1.52 95 1004.9
20260506015114 15 237 0.0 6.4 0.36 1.50 1.50 95 1004.9
20260506014611 15 228 3.2 11.3 0.36 1.47 1.47 95 1005.0
20260506014106 15 206 6.4 8.0 0.30 1.45 1.45 95 1005.0
20260506013605 15 221 9.7 17.7 0.36 1.42 1.42 95 1005.0
20260506013101 15 50 0.0 6.4 0.36 1.40 1.40 95 1004.9
20260506012558 15 220 6.4 9.7 0.23 1.35 1.35 96 1004.6
20260506012054 15 251 3.2 8.0 0.18 1.32 1.32 96 1004.6
20260506011552 15 212 4.8 12.9 0.13 1.32 1.32 96 1004.4
20260506011048 15 217 9.7 12.9 0.05 1.30 1.30 96 1004.5
20260506010548 15 186 3.2 11.3 0.13 1.30 1.30 96 1004.3
20260506010044 15 219 4.8 6.4 0.13 1.27 1.27 96 1004.1
20260506005541 15 187 4.8 6.4 0.18 1.27 1.27 96 1004.3
20260506005037 15 159 8.0 9.7 0.18 1.27 1.27 96 1004.2
20260506004535 15 188 4.8 16.1 0.18 1.24 1.24 96 1004.3
20260506004031 15 189 3.2 8.0 0.18 1.22 1.22 96 1004.3
20260506003528 15 200 9.7 9.7 0.05 1.19 1.19 96 1004.4
20260506003024 15 160 3.2 6.4 0.13 1.19 1.19 96 1004.3
20260506002520 15 211 4.8 11.3 0.13 1.19 1.19 96 1004.4
20260506002015 15 209 4.8 6.4 0.13 1.19 1.19 96 1004.2
20260506001512 15 256 6.4 11.3 0.13 1.17 1.17 96 1004.3
20260506001009 15 220 4.8 11.3 0.13 1.17 1.17 96 1004.5
20260506000507 15 187 6.4 8.0 0.18 1.14 1.14 95 1004.6
20260506000004 15 226 4.8 8.0 0.23 1.14 1.14 95 1004.3
20260505235502 15 198 3.2 8.0 0.36 1.12 1.12 95 1004.2